Location: Brodeslavy
(49.9527°N, 13.5567°E)
Time: 21:31:52
(UTC+00:00)

Cosmos 968 Rocket - Pass Details

Date: 17 June 2025
Orbit: 736 x 766 km, 74.0° (Epoch: 16 July)

Event Time Altitude Azimuth Distance (km) Brightness Sun altitude
Exits shadow 23:33:31 27° 201° (SSW) 1,442 4.4 -16.4°
Maximum altitude 23:36:28 88° 113° (ESE) 770 3.4 -16.3°
Drops below altitude 10° 23:41:44 10° 24° (NNE) 2,313 7.2 -16.2°
Sets 23:44:07 0° 25° (NNE) 3,246 8.3 -16.2°
